Regional Weather Roundup
Issued by NWS Northern Indiana

Home | Current Version | Previous Version | Text Only | Print | Product List | Glossary On
Versions: 1 2 3 4 5 6 7 8 9 10 11 12 13 14 15 16 17 18 19 20 21 22 23 24 25 26 27 28 29 30 31 32 33 34 35 36 37 38 39 40 41 42 43 44 45 46 47 48 49 50
000
ASUS43 KIWX 241810
RWRIWX

KIWX WEATHER ROUNDUP
NATIONAL WEATHER SERVICE NORTHERN INDIANA
100 PM EST SAT FEB 24 2018

NOTE: "FAIR" INDICATES FEW OR NO CLOUDS BELOW 12,000 FEET WITH NO
SIGNIFICANT WEATHER AND/OR OBSTRUCTIONS TO VISIBILITY.

* THESE STATIONS ARE NOT UNDER NWS QUALITY CONTROL. THEY ALSO MAY NOT
  REPORT WEATHER SUCH AS PRECIPITATION OR FOG.

INZ001>027-241900-
NORTHERN INDIANA

CITY           SKY/WX    TMP DP  RH WIND       PRES   REMARKS
GARY*          CLOUDY    41  36  81 E7        30.10S
VALPARAISO     CLOUDY    42  37  82 E15       30.03F
6HR MIN TEMP:  37; 6HR MAX TEMP:  42;

MICHIGAN CITY* CLOUDY    43  36  75 SE6G17    30.05F
LAPORTE*       CLOUDY    40  36  85 E15       30.05F
6HR MIN TEMP:  35; 6HR MAX TEMP:  40; 6HR PCP:  0.01;

SOUTH BEND     CLOUDY    40  34  79 E14       30.07F
6HR MIN TEMP:  34; 6HR MAX TEMP:  41;

ELKHART*       CLOUDY    41  34  75 E13       30.08F
GOSHEN         CLOUDY    40  35  83 E15       30.08F HAZE
6HR MIN TEMP:  36; 6HR MAX TEMP:  40;

MONTICELLO*    CLOUDY    44  42  91 E12G20    30.00F
6HR MIN TEMP:  36; 6HR MAX TEMP:  43; 6HR PCP:  0.01;

LOGANSPORT*    CLOUDY    43  41  93 E15       30.03F
ROCHESTER*     CLOUDY    45  43  93 E14G20    30.05F
WARSAW*        CLOUDY    39  37  93 N12       30.07F
AUBURN*        CLOUDY    37  36  93 E13G18    30.10F
FORT WAYNE     CLOUDY    42  39  89 E17       30.09F
6HR MIN TEMP:  38; 6HR MAX TEMP:  42; 6HR PCP:  0.05;

HUNTINGTON*    CLOUDY    40  39  96 E10       30.07F
6HR MIN TEMP:  36; 6HR MAX TEMP:  40; 6HR PCP:  0.02;

PERU/GRISSOM   CLOUDY    45  45 100 E16G23    30.01F
6HR MIN TEMP:  37; 6HR MAX TEMP:  45; 6HR PCP:  0.05;

MARION*        CLOUDY    42  42 100 E15       30.04F FOG
6HR MIN TEMP: -17; 6HR MAX TEMP:  70; 6HR PCP:  0.03;


$$
INZ028>050-241900-
CENTRAL INDIANA

CITY           SKY/WX    TMP DP  RH WIND       PRES   REMARKS
LAFAYETTE      CLOUDY    45  43  93 E15       29.99F
6HR MIN TEMP:  37; 6HR MAX TEMP:  45; 6HR PCP:  0.02;

KOKOMO*        CLOUDY    43  41  93 E17G23    30.02F
6HR MIN TEMP:  38; 6HR MAX TEMP:  44; 6HR PCP:  0.06;

MUNCIE*        CLOUDY    46  43  89 E14       30.02F
6HR MIN TEMP:  43; 6HR MAX TEMP:  47; 6HR PCP:  0.35;

INDIANAPOLIS   CLOUDY    47  46  97 E14       29.99F
6HR MIN TEMP:  42; 6HR MAX TEMP:  48; 6HR PCP:  0.72;


$$
MIZ043>046-050>051-056>058-064>065-071>073-077>080-241900-
SOUTHWEST LOWER MICHIGAN

CITY           SKY/WX    TMP DP  RH WIND       PRES   REMARKS
BATTLE CREEK   CLOUDY    40  33  76 E13       30.12F
6HR MIN TEMP:  34; 6HR MAX TEMP:  40;

BENTON HARBOR  CLOUDY    44  35  70 E14G22    30.07F
6HR MIN TEMP:  34; 6HR MAX TEMP:  44;

COLDWATER*     CLOUDY    39  36  87 E13       30.11F
6HR MIN TEMP:  35; 6HR MAX TEMP:  39;

HILLSDALE*     CLOUDY    36  32  87 E10       30.11F
HOLLAND        CLOUDY    42  33  70 SE15G23   30.11F
6HR MIN TEMP:  32; 6HR MAX TEMP:  42;

GRAND RAPIDS   CLOUDY    39  31  72 E17       30.13F
6HR MIN TEMP:  32; 6HR MAX TEMP:  39;

KALAMAZOO      CLOUDY    42  33  70 E12       30.11F
6HR MIN TEMP:  35; 6HR MAX TEMP:  42;

STURGIS*       CLOUDY    41  36  83 E17       30.09F
6HR MIN TEMP:  36; 6HR MAX TEMP:  41;

THREE RIVERS*  CLOUDY    41  34  76 E13       30.10F
6HR MIN TEMP:  36; 6HR MAX TEMP:  41;


$$
OHZ001>008-015>018-024>025-241900-
NORTHWEST OHIO

CITY           SKY/WX    TMP DP  RH WIND       PRES   REMARKS
WAUSEON*       CLOUDY    39  39 100 E15G22    30.14F
DEFIANCE       CLOUDY    40  37  89 E13       30.12F
6HR MIN TEMP:  37; 6HR MAX TEMP:  40; 6HR PCP:  0.02;

FINDLAY        CLOUDY    39  35  86 NE13      30.11F
6HR MIN TEMP:  39; 6HR MAX TEMP:  40; 6HR PCP:  0.06;

TOLEDO EXPRESS CLOUDY    38  33  82 E13       30.15F
6HR MIN TEMP:  38; 6HR MAX TEMP:  39; 6HR PCP: TRACE;

TOLEDO METCALF CLOUDY    38  31  76 NE9       30.18F
6HR MIN TEMP:  38; 6HR MAX TEMP:  39; 6HR PCP: TRACE;

LIMA           LGT RAIN  41  40  96 NE9       30.09F
6HR MIN TEMP:  39; 6HR MAX TEMP:  41; 6HR PCP:  0.12;


$$
AND FOR LAKE MICHIGAN COASTAL AND OPEN LAKE BUOY OBSERVATIONS

STATION/POSITION TEMP    WIND        PRES    VSBY  WAVE
                 AIR SEA DIR/SP/G                  HT/PER
                 (F)     (DEG/KT/KT) (MB)    (MI)  (FT/S)
CALUMET HARBOR    35      30/ 11/ 13 1017.0F
MICHIGAN CITY     41      80/ 15/ 18   N/A
BURNS HARBOR      42     110/ 11/ 17 1017.9F
SAINT JOSEPH      44     100/  2/  8 1019.0

$$
&&



USA.gov is the U.S. government's official web portal to all federal, state and local government web resources and services.